x

C10 - Navy-2 (42013) Weather Station

4:30am - Sat 18th Aug 2018 All times are EDT. -4 hours from GMT.

  • Wind
    7mph, 9mph gusts
  • Sea Temp 85°f
  • Sea Pressure 1019.5mb
  • C10 - Navy-2
  • C10 - Navy-2

More Historic Weather Station data

Upgrade to MSW Pro to gain access to the past 30 days of data for over 8000 Wavebouys and Weather Stations around the globe.

Join

Comparision Forecast

View Surf forecast
   
Sat 08/18 4:30am 7 9 mph 1019.5mb 85f
4:00am 7 9 mph 1019.6mb 85f
3:30am 4 7 mph 1019.8mb 85f
3:00am 4 7 mph 1020.1mb 85f
2:30am 4 7 mph 1020.3mb 86f
2:00am 4 7 mph 1020.8mb 86f
1:30am 4 7 mph 1021.1mb 86f
1:00am 2 4 mph 1021.7mb 86f
Fri 08/17 11:30pm 2 4 mph 1021.5mb 86f
11:00pm 4 7 mph 1021.4mb 86f
10:30pm 2 4 mph 1021.1mb 86f
10:00pm 2 4 mph 1021mb 86f
9:30pm 4 4 mph 1020.5mb 86f
9:00pm 4 7 mph 1020.2mb 86f
8:30pm 7 7 mph 1020.3mb 86f
8:00pm 7 9 mph 1020.1mb 86f
7:30pm 9 9 mph 1020mb 86f
7:00pm 7 9 mph 1020mb 86f
6:30pm 7 9 mph 1020mb 86f
6:00pm 9 11 mph 1020mb 87f
5:30pm 9 11 mph 1019.9mb 87f
5:00pm 9 11 mph 1020.1mb 87f
4:30pm 9 11 mph 1020.4mb 87f
4:00pm 7 9 mph 1020.7mb 87f
3:30pm 7 9 mph 1020.6mb 87f
3:00pm 7 9 mph 1020.8mb 87f
2:30pm 7 9 mph 1021.6mb 86f
2:00pm 7 9 mph 1021.9mb 86f
1:30pm 7 9 mph 1022.2mb 86f
1:00pm 9 13 mph 1022.3mb 86f
12:30pm 11 13 mph 1022.4mb 86f
12:00pm 11 13 mph 1022.4mb 86f
11:30am 11 13 mph 1022.5mb 86f
11:00am 13 16 mph 1022.4mb 86f
9:30am 11 13 mph 1022mb 86f
9:00am 13 18 mph 1021.8mb 86f
8:30am 13 18 mph 1021.3mb 85f
8:00am 13 18 mph 1021mb 85f
7:30am 13 16 mph 1020.7mb 85f
7:00am 11 13 mph 1020.5mb 85f
4:30am 11 11 mph 1020.2mb 85f
4:00am 9 11 mph 1020.5mb 85f
2:30am 7 7 mph 1021.3mb 85f
2:00am 4 9 mph 1021.4mb 85f
1:30am 2 4 mph 1022.2mb 86f
1:00am 7 9 mph 1022.3mb 86f
12:30am 7 13 mph 1022.6mb 85f
12:00am 9 11 mph 1022.7mb 85f
Thu 08/16 11:30pm 4 9 mph 1022.5mb 86f
11:00pm 7 20 mph 1022.2mb 86f
9:30pm 9 11 mph 1021.5mb 86f
9:00pm 9 13 mph 1021.3mb 86f
8:30pm 2 4 mph 1020.8mb 86f
8:00pm 4 7 mph 1020.5mb 86f
7:30pm 7 9 mph 1020.3mb 86f
7:00pm 7 9 mph 1020.1mb 86f
6:30pm 7 9 mph 1019.8mb 86f
6:00pm 7 9 mph 1019.6mb 86f
5:30pm 7 9 mph 1019.7mb 86f
5:00pm 7 9 mph 1019.9mb 86f
4:30pm 7 9 mph 1020mb 86f
4:00pm 9 11 mph 1020.2mb 86f
3:30pm 9 11 mph 1020.6mb 86f
3:00pm 11 13 mph 1020.8mb 86f
2:30pm 11 13 mph 1020.9mb 86f
2:00pm 11 16 mph 1021.1mb 86f
1:30pm 11 13 mph 1021.1mb 85f
1:00pm 11 13 mph 1021.3mb 85f
12:30pm 13 16 mph 1021.2mb 85f
12:00pm 13 16 mph 1021.3mb 85f
11:30am 13 16 mph 1021.2mb 85f
11:00am 13 16 mph 1021.2mb 85f
10:30am 11 16 mph 1021.1mb 85f
10:00am 13 16 mph 1020.7mb 85f
9:30am 16 18 mph 1020.5mb 85f
9:00am 16 18 mph 1020mb 85f
8:30am 13 16 mph 1019.9mb 85f
8:00am 13 16 mph 1019.8mb 85f
7:30am 16 20 mph 1019.8mb 85f
7:00am 16 18 mph 1019.5mb 85f
6:30am 13 16 mph 1019mb 85f
6:00am 13 16 mph 1018.6mb 85f
5:30am 11 13 mph 1018.4mb 85f
5:00am 11 13 mph 1018.4mb 85f
4:30am 9 11 mph 1018.1mb 85f
4:00am 7 9 mph 1018.1mb 85f
3:30am 9 11 mph 1018.3mb 85f
3:00am 7 9 mph 1018.6mb 85f
2:30am 9 11 mph 1019mb 85f
2:00am 11 16 mph 1019.2mb 85f
1:30am 18 22 mph 1020mb 85f
1:00am 18 22 mph 1019.8mb 85f
Wed 08/15 11:30pm 7 9 mph 1019.6mb 85f
11:00pm 9 9 mph 1019.6mb 85f
10:30pm 2 4 mph 1019.1mb 85f
10:00pm  -  2 mph 1019mb 85f
9:30pm 2 2 mph 1019mb 85f
9:00pm 2 2 mph 1018.9mb 86f
8:30pm 2 4 mph 1018.7mb 86f
8:00pm 4 4 mph 1018.5mb 86f
7:30pm 2 2 mph 1017.8mb 86f
7:00pm 4 4 mph 1017.6mb 86f
6:30pm 4 7 mph 1017.5mb 86f
6:00pm 4 7 mph 1017.5mb 86f
5:30pm 4 9 mph 1017.7mb 86f
5:00pm 7 9 mph 1017.4mb 86f
4:30pm 7 9 mph 1017.7mb 86f
4:00pm 7 9 mph 1018.2mb 86f
3:30pm 7 9 mph 1018.5mb 86f
3:00pm 9 13 mph 1018.9mb 86f
2:30pm 9 11 mph 1019.2mb 86f
2:00pm 11 13 mph 1019.1mb 85f
1:30pm 11 13 mph 1019.1mb 85f
1:00pm 11 13 mph 1019.5mb 85f
12:30pm 11 13 mph 1019.7mb 85f
12:00pm 11 13 mph 1019.8mb 85f
11:30am 11 13 mph 1019.6mb 85f
11:00am 11 13 mph 1019.6mb 85f
9:30am 11 13 mph 1018.6mb 85f
9:00am 11 13 mph 1018.5mb 85f
8:30am 11 13 mph 1018.4mb 85f
8:00am 13 16 mph 1018mb 85f
7:30am 11 16 mph 1018mb 85f
7:00am 11 16 mph 1017.6mb 85f
6:30am 9 11 mph 1017.6mb 85f
6:00am 9 13 mph 1017.2mb 85f
5:30am 9 11 mph 1017mb 85f
5:00am 11 13 mph 1017.1mb 85f
3:30am 9 11 mph 1017.3mb 85f
3:00am 9 11 mph 1017.4mb 85f
2:30am 9 11 mph 1017.6mb 85f
2:00am 7 9 mph 1017.9mb 85f
1:30am 9 13 mph 1018mb 85f
1:00am 7 9 mph 1018.3mb 85f
12:30am 4 4 mph 1018.4mb 85f
12:00am 4 7 mph 1018.5mb 85f
Tue 08/14 11:30pm 7 9 mph 1018.3mb 85f
11:00pm 4 7 mph 1018.1mb 85f
10:30pm 4 7 mph 1017.9mb 85f
10:00pm 4 7 mph 1018.1mb 85f
9:30pm 7 7 mph 1017.9mb 85f
9:00pm 9 11 mph 1017.7mb 86f
8:30pm 7 9 mph 1017.5mb 86f
8:00pm 7 9 mph 1017.3mb 85f
7:30pm 7 7 mph 1017.2mb 85f
7:00pm 4 4 mph 1017.1mb 86f
6:30pm 4 7 mph 1017.2mb 86f
6:00pm 7 7 mph 1016.9mb 86f
3:30pm 7 9 mph 1018mb 86f
3:00pm 7 9 mph 1018.1mb 86f
2:30pm 4 9 mph 1018.2mb 86f
2:00pm 4 7 mph 1018.2mb 86f
1:30pm 4 7 mph 1018.4mb 86f
1:00pm 7 9 mph 1018.6mb 86f
12:30pm 7 9 mph 1018.9mb 85f
12:00pm 9 11 mph 1019mb 85f
11:30am 9 11 mph 1019.3mb 85f
11:00am 9 11 mph 1019.1mb 85f
10:30am 7 9 mph 1018.9mb 85f